Weather Roundup
Issued by NWS Corpus Christi, TX

Home | Current Version | Previous Version | Text Only | Print | Product List | Glossary Off
Versions: 1 2 3 4 5 6 7 8 9 10 11 12 13 14 15 16 17 18 19 20 21 22 23 24 25 26 27 28 29 30 31 32 33 34 35 36 37 38 39 40 41 42 43 44 45 46 47 48 49 50

000
ASUS44 KCRP 020210
HRRCRP

SOUTH TEXAS REGIONAL WEATHER ROUNDUP
NATIONAL WEATHER SERVICE CORPUS CHRISTI TX
900 PM CDT SUN MAY 01 2016


TXZ229>244-020300-
...CORPUS CHRISTI AREA OBSERVATIONS...

CITY           SKY/WX    TMP DP  RH WIND       PRES   REMARKS
CORPUS CHRISTI MOCLDY    81  74  79 E12       29.81R
NAS CORPUS CHR CLOUDY    80  77  90 E13       29.81R
ROCKPORT       PTCLDY    81  75  82 E14       29.82R
KINGSVILLE NAS CLOUDY    79  77  94 E12       29.80R
ALICE          PTCLDY    80  73  79 E12       29.80R
FALFURRIAS     CLOUDY    81  73  76 E8        29.79R
$$

...VICTORIA AREA OBSERVATIONS...

CITY           SKY/WX    TMP DP  RH WIND       PRES   REMARKS
VICTORIA       MOCLDY    77  68  73 NE12      29.86R
BEEVILLE       FAIR      78  69  72 NE13      29.83R
PLEASANTON     PTCLDY    73  59  61 N14       29.88R
SAN ANTONIO    CLOUDY    73  57  57 N10       29.92R
$$

...LAREDO AREA OBSERVATIONS...

CITY           SKY/WX    TMP DP  RH WIND       PRES   REMARKS
LAREDO         MOCLDY    83  69  62 NE20G28   29.80R
COTULLA        CLOUDY    79  63  57 NE14G23   29.85R
DEL RIO        CLOUDY    66  59  78 W13       29.93R
MCALLEN        CLOUDY    84  73  69 E13       29.77R HX  90
HEBBRONVILLE   MOCLDY    83  71  64 E12       29.82R
$$

...OTHER TEXAS OBSERVATIONS...

CITY           SKY/WX    TMP DP  RH WIND       PRES   REMARKS
BROWNSVILLE    CLOUDY    79  76  90 NE6       29.78R
HOUSTON        CLOUDY    73  70  90 SE5       29.89R
COL. STATION   PTCLDY    74  60  61 N8        29.91R
AUSTIN         MOCLDY    68  58  70 N10       29.92R
WACO           CLOUDY    68  54  60 N7        29.98R
FORT WORTH     PTCLDY    68  49  50 NE13      30.01R
WICHITA FALLS  CLOUDY    54  50  86 N15       30.12R
LUBBOCK        CLOUDY    46  37  71 N18G24    30.18R
EL PASO        PTCLDY    55  33  43 E17G24    30.03R
$$

...MARINE OBSERVATIONS...

STATION/POSITION TIME  SKY/WX   TEMP    WIND        PRES    VSBY  WAVE   SWELL
                                AIR SEA DIR/SP/G                  HT/PER HT/PER
                 (UTC)          (F)     (DEG/KT/KT) (MB)    (MI)  (FT/S) (FT/S)
PORT ARANSAS     0200            79 81   80/ 13/ 14 1010.4R
BUOY 90 E PORT A 0150            78 78   80/ 12/ 14 1009.3R         4/ 8   3/ 8
BUOY 45 SE BAFFI 0150            79 79   70/ 14/ 16 1008.0R         4/ 8   3/ 8
BUOY 200 E PT IS 0150                                 N/A           6/ 8   3/ 8
BUOY 15 E GALVES 0150            75 76  100/ 17/ 19 1010.5R         6/ 6   2/11
$$




USA.gov is the U.S. government's official web portal to all federal, state and local government web resources and services.